(357398) = 1990 SB24 = 2003 UZ228 = 6815 P-L

Discovered at Anderson Mesa on 2003-10-23 by LONEOS.

Orbit

Orbit type: Main Belt

Note: WebGL enabled browser required.

epoch2023-09-13.0
epoch JD2460200.5
perihelion date2021-01-16.13287
perihelion JD2459230.63287
argument of perihelion (°)38.64759
ascending node (°)18.48888
inclination (°)5.40282
eccentricity0.3600182
perihelion distance (AU)1.6875752
Tisserand w.r.t. Jupiter3.3
ΔV w.r.t. Earth (km/sec)8.4
semimajor axis (AU)2.6369114
mean anomaly (°)223.24040
mean daily motion (°/day)0.23017630
aphelion distance (AU)3.586
period (years)4.28
P-vector [x]0.54351987
P-vector [y]0.74484810
P-vector [z]0.38702384
Q-vector [x]-0.83886505
Q-vector [y]0.46559203
Q-vector [z]0.28200973
absolute magnitude17.72
phase slope0.15
uncertainty0
referenceMPO 779548
observations used314
oppositions9
arc length (days)22024
first opposition used1960
last opposition used2021
residual rms (arc-secs)0.69
perturbers coarse indicatorM-v
perturbers precise indicator003Ek
first observation date used1960-09-24.0
last observation date used2021-01-11.0
computer nameMPCLINUX
JD of orbit computation2456789.313355
perihelion JD uncertainty (days)7.3769E-05
argument of perihelion uncertainty (°)9.7155E-05
ascending node uncertainty (°)8.8976E-05
inclination uncertainty (°)1.4828E-05
eccentricity uncertainty 1.9469E-07
perihelion distance uncertainty (AU)5.1218E-07
Minimum Orbit Intersection Distances (in AU)
for orbit epoch: 2460200.5, reference: E2023-T87
Mercury1.37608
Venus0.96941
Earth0.70229
Mars0.20441
Jupiter1.81625
Saturn6.39351
Uranus15.2407
Neptune27.0702

Observations

325 total observations over interval: 1960 09 24.32430 – 2021 01 11.086455
These data are available for download (format description).

Date (UT) J2000 RA J2000 Dec Magn Location Ref
1960 09 24.32430 00 13 41.37 -02 30 58.3 19.5   675 – Palomar Mountain MPS 284292
1960 09 24.32431 00 13 41.34 -02 30 57.4 19.8   675 – Palomar Mountain MPS 16084
1960 09 24.35000 00 13 39.79 -02 31 01.1 19.1   675 – Palomar Mountain MPS 284292
1960 09 26.26528 00 11 52.29 -02 33 07.8 18.9   675 – Palomar Mountain MPS 284292
1960 09 26.28541 00 11 51.10 -02 33 09.7 19.3   675 – Palomar Mountain MPS 284292
1960 09 27.30972 00 10 52.83 -02 34 12.4 18.7 V 675 – Palomar Mountain MPS 284292
1960 09 27.34237 00 10 50.73 -02 34 12.5 19.2 V 675 – Palomar Mountain MPS 284292
1960 09 28.31736 00 09 55.34 -02 35 08.2 18.8   675 – Palomar Mountain MPS 284292
1960 09 28.33750 00 09 54.14 -02 35 09.6 19.2   675 – Palomar Mountain MPS 284292
1960 10 17.25973 23 53 36.60 -02 29 33.8 20.4   675 – Palomar Mountain MPS 284292
1960 10 17.28198 23 53 35.66 -02 29 31.3 20.4   675 – Palomar Mountain MPS 284292
1960 10 22.21181 23 50 39.05 -02 18 02.8 21.1   675 – Palomar Mountain MPS 284292
1960 10 22.23403 23 50 38.30 -02 17 58.6 20.8   675 – Palomar Mountain MPS 284292
1960 10 24.18820 23 49 42.04 -02 12 00.8 19.8 V 675 – Palomar Mountain MPS 284292
1960 10 26.23959 23 48 51.62 -02 04 55.8 20.9   675 – Palomar Mountain MPS 284292
1960 10 26.26111 23 48 51.02 -02 04 51.0 20.8   675 – Palomar Mountain MPS 284292
1990 09 25.22153 00 27 58.42 -00 18 48.8 20.0   809 – European Southern Observatory, La Silla MPC 18976
1990 09 25.23472 00 27 57.67 -00 18 51.5   809 – European Southern Observatory, La Silla MPC 18976
1990 09 25.24792 00 27 56.97 -00 18 52.4   809 – European Southern Observatory, La Silla MPC 18976
2001 05 22.98778 13 57 33.13 -14 53 35.6 22.8 R 807 – Cerro Tololo Observatory, La Serena MPS 178426
2001 05 23.08494 13 57 29.31 -14 53 18.3   807 – Cerro Tololo Observatory, La Serena MPS 178426
2003 09 21.44934 03 18 46.11 +19 16 58.3 19.4 R 699 – Lowell Observatory-LONEOS MPS 90688
2003 09 21.46262 03 18 46.81 +19 17 05.8   699 – Lowell Observatory-LONEOS MPS 90688
2003 09 21.47595 03 18 47.41 +19 17 12.1   699 – Lowell Observatory-LONEOS MPS 90688
2003 09 21.48931 03 18 47.99 +19 17 17.7   699 – Lowell Observatory-LONEOS MPS 90688
2003 09 29.30164 03 24 14.14 +20 23 38.3 19.5   704 – Lincoln Laboratory ETS, New Mexico MPS 89868
2003 09 29.31485 03 24 14.54 +20 23 45.0 20.0   704 – Lincoln Laboratory ETS, New Mexico MPS 89868
2003 09 29.32847 03 24 14.98 +20 23 51.9 20.4   704 – Lincoln Laboratory ETS, New Mexico MPS 89868
2003 09 29.34177 03 24 15.37 +20 23 58.9 19.7   704 – Lincoln Laboratory ETS, New Mexico MPS 89868
2003 09 29.35472 03 24 15.80 +20 24 06.2 20.0   704 – Lincoln Laboratory ETS, New Mexico MPS 89868
2003 10 23.27822 03 26 47.98 +23 24 26.1 19.0 R 699 – Lowell Observatory-LONEOS MPS 89868
2003 10 23.31366 03 26 47.19 +23 24 40.4   699 – Lowell Observatory-LONEOS MPS 89868
2003 10 23.33370 03 26 46.59 +23 24 50.0   699 – Lowell Observatory-LONEOS MPS 89868
2003 10 23.35372 03 26 46.12 +23 24 56.3   699 – Lowell Observatory-LONEOS MPS 89868
2003 10 25.32015 03 25 58.94 +23 37 25.2 18.8   704 – Lincoln Laboratory ETS, New Mexico MPS 89868
2003 10 25.33202 03 25 58.59 +23 37 29.6 19.0   704 – Lincoln Laboratory ETS, New Mexico MPS 89868
2003 10 25.34491 03 25 58.19 +23 37 34.7 18.6   704 – Lincoln Laboratory ETS, New Mexico MPS 89868
2003 10 25.35707 03 25 57.80 +23 37 39.2 19.2   704 – Lincoln Laboratory ETS, New Mexico MPS 89868
2003 10 25.36898 03 25 57.44 +23 37 44.0 19.3   704 – Lincoln Laboratory ETS, New Mexico MPS 89868
2003 10 27.41266 03 24 59.49 +23 50 08.8 19.0 V 691 – Steward Observatory, Kitt Peak-Spacewatch MPS 89868
2003 10 27.43938 03 24 58.53 +23 50 17.9 19.2 V 691 – Steward Observatory, Kitt Peak-Spacewatch MPS 89868
2003 10 27.46705 03 24 57.61 +23 50 27.3 19.2 V 691 – Steward Observatory, Kitt Peak-Spacewatch MPS 89868
2003 10 30.36142 03 23 21.95 +24 07 02.6 18.5   704 – Lincoln Laboratory ETS, New Mexico MPS 89868
2003 10 30.37340 03 23 21.49 +24 07 07.1 19.1   704 – Lincoln Laboratory ETS, New Mexico MPS 89868
2003 10 30.38604 03 23 20.93 +24 07 10.9 19.1   704 – Lincoln Laboratory ETS, New Mexico MPS 89868
2003 10 30.39923 03 23 20.40 +24 07 14.7 18.7   704 – Lincoln Laboratory ETS, New Mexico MPS 89868
2003 10 30.41198 03 23 19.89 +24 07 19.1 18.9   704 – Lincoln Laboratory ETS, New Mexico MPS 89868
2003 11 02.31506 03 21 29.56 +24 22 42.9 18.5   704 – Lincoln Laboratory ETS, New Mexico MPS 90688
2003 11 02.35240 03 21 27.83 +24 22 54.2 18.9   704 – Lincoln Laboratory ETS, New Mexico MPS 90688
2003 11 02.36517 03 21 27.25 +24 22 58.3 19.2   704 – Lincoln Laboratory ETS, New Mexico MPS 90688
2003 11 05.24763 03 19 25.75 +24 36 56.1 18.0 R 699 – Lowell Observatory-LONEOS MPS 93750
2003 11 05.26854 03 19 24.67 +24 37 01.8   699 – Lowell Observatory-LONEOS MPS 93750
2003 11 05.28945 03 19 23.76 +24 37 07.3   699 – Lowell Observatory-LONEOS MPS 93750
2003 11 05.31033 03 19 22.77 +24 37 13.8   699 – Lowell Observatory-LONEOS MPS 93750
2003 11 16.26569 03 10 38.41 +25 17 54.1 18.9 V 691 – Steward Observatory, Kitt Peak-Spacewatch MPS 91113
2003 11 16.29736 03 10 36.70 +25 17 59.5 18.7 V 691 – Steward Observatory, Kitt Peak-Spacewatch MPS 91113
2003 11 16.32497 03 10 35.21 +25 18 04.1 18.5 V 691 – Steward Observatory, Kitt Peak-Spacewatch MPS 91113
2003 11 19.14306 03 08 19.29 +25 25 20.6 18.1 R 699 – Lowell Observatory-LONEOS MPS 91933
2003 11 19.16068 03 08 18.39 +25 25 23.4   699 – Lowell Observatory-LONEOS MPS 91933
2003 11 19.17827 03 08 17.51 +25 25 26.3   699 – Lowell Observatory-LONEOS MPS 91933
2003 11 19.19585 03 08 16.56 +25 25 29.3   699 – Lowell Observatory-LONEOS MPS 91933
2003 11 20.26952 03 07 25.46 +25 27 58.2 18.4   704 – Lincoln Laboratory ETS, New Mexico MPS 91113
2003 11 20.28198 03 07 24.78 +25 28 00.1 19.0   704 – Lincoln Laboratory ETS, New Mexico MPS 91113
2003 11 20.29441 03 07 24.13 +25 28 01.2 18.7   704 – Lincoln Laboratory ETS, New Mexico MPS 91113
2003 11 20.30692 03 07 23.48 +25 28 03.0 18.7   704 – Lincoln Laboratory ETS, New Mexico MPS 91113
2003 11 20.31967 03 07 22.83 +25 28 04.6 18.7   704 – Lincoln Laboratory ETS, New Mexico MPS 91113
2003 11 21.26251 03 06 39.29 +25 30 06.3 18.0   644 – Palomar Mountain/NEAT MPS 91113
2003 11 21.28444 03 06 38.18 +25 30 09.0 18.3   644 – Palomar Mountain/NEAT MPS 91113
2003 11 21.30817 03 06 36.99 +25 30 11.9 18.1   644 – Palomar Mountain/NEAT MPS 91113
2003 12 04.24076 02 58 43.76 +25 48 27.2 19.0   704 – Lincoln Laboratory ETS, New Mexico MPS 92798
2003 12 04.25282 02 58 43.37 +25 48 27.2 20.1   704 – Lincoln Laboratory ETS, New Mexico MPS 92798
2003 12 04.26509 02 58 42.84 +25 48 27.6 19.8   704 – Lincoln Laboratory ETS, New Mexico MPS 92798
2003 12 28.14412 03 00 54.46 +26 12 58.1 19.7   704 – Lincoln Laboratory ETS, New Mexico MPS 95823
2003 12 28.15767 03 00 54.93 +26 12 59.5 19.5   704 – Lincoln Laboratory ETS, New Mexico MPS 95823
2003 12 28.18461 03 00 55.79 +26 13 02.8 20.4   704 – Lincoln Laboratory ETS, New Mexico MPS 95823
2003 12 28.24048 03 00 57.66 +26 13 06.9 19.3 R 699 – Lowell Observatory-LONEOS MPS 95823
2003 12 28.25635 03 00 58.21 +26 13 08.9   699 – Lowell Observatory-LONEOS MPS 95823
2003 12 28.27215 03 00 58.69 +26 13 10.7   699 – Lowell Observatory-LONEOS MPS 95823
2003 12 28.28792 03 00 59.29 +26 13 11.5   699 – Lowell Observatory-LONEOS MPS 95823
2003 12 29.13112 03 01 31.53 +26 14 30.6 19.6   704 – Lincoln Laboratory ETS, New Mexico MPS 95823
2003 12 29.14402 03 01 31.98 +26 14 32.1 19.9   704 – Lincoln Laboratory ETS, New Mexico MPS 95823
2003 12 29.15863 03 01 32.54 +26 14 33.1 19.8   704 – Lincoln Laboratory ETS, New Mexico MPS 95823
2003 12 29.17147 03 01 32.92 +26 14 35.0 19.8   704 – Lincoln Laboratory ETS, New Mexico MPS 95823
2007 10 16.14341 21 53 29.32 -17 17 10.8 20.5 V G96 – Mt. Lemmon Survey MPS 220440
2007 10 16.15174 21 53 29.32 -17 17 08.5 20.5 V G96 – Mt. Lemmon Survey MPS 220440
2007 10 16.16013 21 53 29.36 -17 17 05.7 20.7 V G96 – Mt. Lemmon Survey MPS 220440
2007 10 16.16855 21 53 29.40 -17 17 02.9 20.0 V G96 – Mt. Lemmon Survey MPS 220440
2013 02 13.02192 10 55 36.10 +13 55 48.5 20.4 R J04 – ESA Optical Ground Station, Tenerife MPS 453674
